Regional Weather Roundup
Issued by NWS

Home | Current Version | Previous Version | Graphics & Text | Print | Product List | Glossary On
Versions: 1 2 3 4 5 6 7 8 9 10 11 12 13 14 15 16 17 18 19 20 21 22 23 24 25 26 27 28 29 30 31 32 33 34 35 36 37 38 39 40 41 42 43 44 45 46 47 48 49 50
000
ASUS45 KCYS 221310
RWRWY

WYOMING REGIONAL WEATHER ROUNDUP
NATIONAL WEATHER SERVICE CHEYENNE WY
600 AM MST WED FEB 22 2017

NOTE:  "FAIR" INDICATES FEW OR NO CLOUDS BELOW 12,000 FEET
WITH NO SIGNIFICANT WEATHER AND/OR OBSTRUCTIONS TO VISIBILITY.

WYZ001-221400-
YELLOWSTONE NATIONAL PARK

CITY           SKY/WX    TMP DP  RH WIND       PRES   REMARKS
LK YELLOWSTONE   N/A     17  14  88 VRB5      29.88S WCI  10
W YELLOWSTONE  NOT AVBL

$$
WYZ002>013-054>058-071-098>099-221400-
NORTHERN WYOMING

CITY           SKY/WX    TMP DP  RH WIND       PRES   REMARKS
JACKSON        CLOUDY    28  19  69 S9        29.93R WCI  20
CODY           FAIR      35  17  47 NE6       29.83R WCI  30
GREYBULL       FAIR      36  22  56 CALM      29.83R
WORLAND        FAIR      30  26  85 CALM      29.83S
SHERIDAN       CLOUDY    36  19  50 VRB7      29.79R WCI  30
BUFFALO        FAIR      39  11  31 NW7       29.79R WCI  34
GILLETTE       FAIR      38  24  57 NW12      29.79R WCI  30
HULETT         FAIR      41  23  48 NW9       29.77R
NEWCASTLE      FAIR      39  25  56 NW10G18   29.80R WCI  32

$$
WYZ014>020-022>026-101>103-221400-
CENTRAL WYOMING

CITY           SKY/WX    TMP DP  RH WIND       PRES   REMARKS
BIG PINEY      FAIR      18  13  80 NW8       29.94F WCI   8
PINEDALE       PTSUNNY   21  18  86 CALM      29.95S
DUBOIS         FAIR      23  14  68 NW13G23   29.86R WCI  11
LANDER         FAIR      33  18  53 W15G21    29.87R WCI  23
RIVERTON       FAIR      31  21  66 W13       29.88R WCI  21
CASPER         FAIR      34  24  67 SW14      29.86R WCI  25
DOUGLAS        CLOUDY    38  25  59 W9        29.87S WCI  31

$$
WYZ021-027>030-104>119-221400-
SOUTHERN WYOMING

CITY           SKY/WX    TMP DP  RH WIND       PRES   REMARKS
EVANSTON       LGT SNOW  24  19  81 CALM      29.98R
FORT BRIDGER   FLURRIES  26  25  99 SW5       30.00S WCI  20
ROCK SPRINGS   CLOUDY    26  23  88 SW10      29.97S WCI  16
DIXON          LGT SNOW  29  28  96 N7        30.00F WCI  22
RAWLINS        CLOUDY    28  22  78 W15       29.94F WCI  16
SARATOGA       LGT SNOW  28  28 100 CALM      29.97S
LARAMIE        LGT SNOW  27  24  89 NW9       29.93S FOG     WCI  18
CHEYENNE       FAIR      33  22  63 NW17G26   29.90F WCI  22
TORRINGTON     CLOUDY    42  24  49 W16G25    29.86R
PINE BLUFFS    FAIR      36  23  60 NW24G38   29.88S WCI  24

$$



USA.gov is the U.S. government's official web portal to all federal, state and local government web resources and services.